GW3792 Weather Reports


time (UTC)temp
F
wind
direction
speed
knots
gust
knots
rain 1hr
in
rain 24hr
in
rain mn
in
humidity
%
barometer
mb
20260508061215 68 294 14.8 26.9 0.00 0.01 0.00 72 1006.9
20260508060546 68 275 14.8 25.2 0.00 0.01 0.00 72 1007.1
20260508060305 68 279 13.9 25.2 0.00 0.01 0.00 73 1007.3
20260508055537 68 268 11.3 24.3 0.00 0.01 0.00 73 1007.3
20260508055028 68 265 14.8 28.7 0.00 0.01 0.00 73 1007.4
20260508054914 68 288 12.2 28.7 0.00 0.01 0.00 72 1007.6
20260508054038 68 259 11.3 28.7 0.00 0.01 0.00 72 1007.9
20260508053531 68 277 17.4 28.7 0.00 0.01 0.00 72 1007.9
20260508053132 68 265 12.2 24.3 0.00 0.01 0.00 72 1008.0
20260508052535 68 259 17.4 24.3 0.00 0.01 0.00 72 1008.5
20260508052024 68 269 17.4 25.2 0.00 0.01 0.00 73 1008.3
20260508051712 68 265 15.6 25.2 0.00 0.01 0.00 73 1008.1
20260508051022 68 268 13.0 26.1 0.00 0.01 0.00 73 1007.7
20260508050541 68 261 15.6 26.1 0.00 0.01 0.00 73 1007.4
20260508050208 68 261 16.5 31.3 0.00 0.01 0.00 73 1007.2
20260508045529 68 263 14.8 31.3 0.00 0.01 0.00 73 1007.3
20260508045025 68 259 16.5 30.4 0.00 0.01 0.00 73 1007.2
20260508044717 68 340 14.8 28.7 0.00 0.01 0.00 73 1007.0
20260508044041 68 259 17.4 28.7 0.00 0.01 0.00 73 1007.1
20260508043551 68 277 19.1 33.0 0.00 0.01 0.00 73 1006.7
20260508043146 68 267 20.9 33.0 0.00 0.01 0.00 72 1006.7
20260508042537 68 265 17.4 39.1 0.00 0.01 0.00 72 1006.6
20260508042041 68 263 26.1 39.1 0.00 0.01 0.00 72 1006.7
20260508041633 68 266 24.3 40.8 0.00 0.01 0.00 72 1006.8
20260508041042 69 273 20.9 45.2 0.00 0.01 0.00 72 1006.6
20260508040531 69 273 20.9 45.2 0.00 0.01 0.00 72 1006.9
20260508040148 68 267 23.5 36.5 0.00 0.01 0.00 72 1006.6
20260508035532 68 281 23.5 36.5 0.00 0.01 0.00 72 1006.8
20260508035026 68 265 20.0 35.6 0.00 0.01 0.00 72 1006.8
20260508034633 68 275 23.5 35.6 0.00 0.01 0.00 72 1006.8
20260508034030 68 259 23.5 35.6 0.00 0.01 0.00 72 1006.8
20260508033529 68 259 21.7 35.6 0.00 0.01 0.00 72 1006.8
20260508033129 68 259 20.9 35.6 0.00 0.01 0.00 72 1006.9
20260508032543 68 262 22.6 35.6 0.00 0.01 0.00 72 1006.9
20260508032041 68 269 19.1 35.6 0.00 0.01 0.00 72 1007.0
20260508031631 68 263 20.0 34.8 0.00 0.01 0.00 72 1007.0
20260508031026 68 341 18.2 34.8 0.00 0.01 0.00 71 1007.2
20260508030542 68 261 19.1 33.9 0.00 0.01 0.00 71 1007.4
20260508030131 68 255 18.2 33.0 0.00 0.01 0.00 71 1007.5
20260508025540 68 269 20.9 33.0 0.00 0.01 0.01 71 1007.6
20260508025030 68 261 17.4 31.3 0.00 0.01 0.01 71 1007.8
20260508024630 68 259 20.9 29.5 0.00 0.01 0.01 71 1007.7
20260508024024 68 259 18.2 33.9 0.00 0.01 0.01 71 1008.2
20260508023526 68 261 20.0 33.9 0.00 0.01 0.01 71 1008.1
20260508023125 68 259 16.5 26.1 0.00 0.01 0.01 72 1008.2
20260508022522 68 265 16.5 26.9 0.00 0.01 0.01 72 1008.3
20260508022040 68 342 15.6 29.5 0.00 0.01 0.01 72 1008.5
20260508021618 68 261 20.0 29.5 0.00 0.01 0.01 72 1008.7
20260508021039 68 266 13.9 32.2 0.00 0.01 0.01 72 1008.6
20260508020530 68 261 20.0 32.2 0.00 0.01 0.01 72 1008.6
20260508020141 68 265 15.6 32.2 0.00 0.01 0.01 72 1008.9
20260508015525 68 262 19.1 32.2 0.00 0.01 0.01 72 1008.8
20260508015021 68 272 13.9 24.3 0.00 0.01 0.01 73 1008.9
20260508014629 68 300 13.9 28.7 0.00 0.01 0.01 73 1009.1
20260508014022 68 275 16.5 28.7 0.00 0.01 0.01 73 1008.9
20260508013522 67 270 14.8 25.2 0.00 0.01 0.01 74 1009.0
20260508013108 67 270 10.4 20.9 0.00 0.01 0.01 74 1009.1
20260508012527 67 289 13.0 22.6 0.00 0.01 0.01 74 1009.1
20260508012043 67 295 12.2 22.6 0.00 0.01 0.01 74 1009.1
20260508011638 68 269 12.2 25.2 0.00 0.01 0.01 74 1009.1
20260508011039 68 287 12.2 25.2 0.00 0.01 0.01 74 1009.1
20260508010529 68 269 13.9 22.6 0.00 0.01 0.01 74 1009.1
20260508010134 67 269 10.4 23.5 0.00 0.01 0.01 74 1009.2
20260508005517 67 271 12.2 23.5 0.00 0.01 0.01 74 1009.2
20260508005030 67 277 12.2 21.7 0.00 0.01 0.01 74 1009.1
20260508004624 67 267 10.4 17.4 0.00 0.01 0.01 74 1009.3
20260508004016 67 305 8.7 16.5 0.00 0.01 0.01 74 1009.1
20260508003517 67 268 8.7 14.8 0.00 0.01 0.01 74 1009.0
20260508003202 67 265 7.8 12.2 0.00 0.01 0.01 74 1009.0
20260508002526 67 262 7.0 12.2 0.00 0.01 0.01 74 1009.1
20260508002039 67 273 7.0 12.2 0.00 0.01 0.01 74 1009.0
20260508001648 68 289 7.0 12.2 0.00 0.01 0.01 74 1009.0
20260508001042 68 307 6.1 13.0 0.00 0.01 0.01 73 1009.0
20260508000523 68 328 6.1 13.0 0.00 0.01 0.01 73 1009.2
20260508000212 68 317 5.2 13.9 0.00 0.01 0.01 73 1009.0
20260507235533 68 314 7.8 13.9 0.00 0.01 0.01 73 1009.1
20260507235028 69 275 7.8 13.0 0.00 0.01 0.01 73 1009.1
20260507234637 69 284 7.0 13.0 0.00 0.01 0.01 73 1009.2
20260507234018 68 317 5.2 13.0 0.00 0.01 0.01 73 1009.2
20260507233523 69 265 5.2 13.9 0.00 0.01 0.01 73 1009.1
20260507233123 69 279 7.0 15.6 0.00 0.01 0.01 73 1009.3
20260507232523 69 292 7.8 15.6 0.00 0.01 0.01 73 1009.3
20260507232036 69 269 7.0 13.9 0.00 0.01 0.01 73 1009.4
20260507231654 69 344 6.1 13.9 0.00 0.01 0.01 72 1009.3
20260507231042 69 342 7.8 13.9 0.00 0.01 0.01 72 1009.4
20260507230539 69 282 5.2 10.4 0.00 0.01 0.01 72 1009.3
20260507230126 69 298 5.2 12.2 0.00 0.01 0.01 72 1009.4
20260507225516 69 221 7.0 12.2 0.00 0.01 0.01 72 1009.6
20260507225047 69 261 5.2 12.2 0.00 0.01 0.01 72 1009.5
20260507224653 69 298 4.3 13.0 0.00 0.01 0.01 72 1009.6
20260507224035 69 281 5.2 11.3 0.00 0.01 0.01 72 1009.6
20260507223541 69 247 4.3 11.3 0.00 0.01 0.01 72 1009.6
20260507223211 69 262 4.3 12.2 0.00 0.01 0.01 72 1009.6
20260507222542 69 286 5.2 13.0 0.00 0.01 0.01 72 1009.6
20260507222037 69 271 5.2 13.0 0.00 0.01 0.01 72 1009.7
20260507221619 69 261 4.3 12.2 0.00 0.01 0.01 72 1009.8
20260507221029 69 344 6.1 12.2 0.00 0.01 0.01 72 1009.8
20260507220517 69 300 5.2 10.4 0.00 0.01 0.01 72 1010.0
20260507220148 69 309 4.3 9.6 0.00 0.01 0.01 72 1009.9
20260507215534 69 93 3.5 11.3 0.00 0.01 0.01 72 1009.8
20260507215042 69 272 4.3 11.3 0.00 0.01 0.01 71 1009.9
20260507214632 70 319 3.5 12.2 0.00 0.01 0.01 71 1010.0
20260507214035 70 23 5.2 13.0 0.00 0.01 0.01 71 1009.9
20260507213521 70 51 6.1 14.8 0.00 0.01 0.01 71 1010.1
20260507213154 70 286 5.2 14.8 0.00 0.01 0.01 71 1010.0
20260507212545 70 329 7.0 12.2 0.00 0.01 0.01 71 1010.0
20260507212025 70 279 6.1 12.2 0.00 0.01 0.01 71 1009.9
20260507211641 70 298 6.1 12.2 0.00 0.01 0.01 70 1010.1
20260507211043 70 261 5.2 12.2 0.00 0.01 0.01 70 1010.0
20260507210530 70 28 4.3 10.4 0.00 0.01 0.01 70 1010.0
20260507210134 70 291 2.6 10.4 0.00 0.01 0.01 70 1009.9
20260507205516 70 325 4.3 10.4 0.00 0.01 0.01 70 1009.8
20260507205029 70 265 2.6 13.0 0.00 0.01 0.01 70 1010.0
20260507204614 70 288 7.0 13.0 0.00 0.01 0.01 69 1010.1
20260507204045 71 257 6.1 12.2 0.00 0.01 0.01 70 1010.0
20260507203544 71 262 5.2 13.0 0.00 0.01 0.01 69 1010.2
20260507203121 71 262 7.8 13.0 0.00 0.01 0.01 69 1010.4
20260507202531 71 261 7.0 10.4 0.00 0.01 0.01 68 1010.3
20260507202038 72 273 6.1 15.6 0.00 0.01 0.01 68 1010.2
20260507201622 72 275 7.8 11.3 0.00 0.01 0.01 67 1010.3
20260507201033 72 277 6.1 13.0 0.00 0.01 0.01 67 1010.1
20260507200542 73 334 7.8 13.9 0.00 0.01 0.01 66 1010.0
20260507200131 73 267 8.7 13.9 0.00 0.01 0.01 66 1009.9
20260507195539 73 280 7.0 16.5 0.00 0.01 0.01 66 1010.1
20260507195028 72 280 8.7 16.5 0.00 0.01 0.01 66 1010.2
20260507194632 72 310 9.6 17.4 0.00 0.01 0.01 66 1009.9
20260507194015 72 265 7.8 17.4 0.00 0.01 0.01 66 1010.0
20260507193531 72 286 7.8 14.8 0.00 0.01 0.01 67 1009.8
20260507193131 72 277 8.7 23.5 0.00 0.01 0.01 67 1009.7
20260507192526 72 263 13.9 23.5 0.00 0.01 0.01 66 1009.8
20260507192023 72 257 9.6 15.6 0.00 0.01 0.01 67 1009.8
20260507191635 72 267 8.7 13.0 0.00 0.01 0.01 68 1009.8
20260507191020 72 288 6.1 11.3 0.00 0.01 0.01 68 1009.8
20260507190529 72 261 7.8 12.2 0.00 0.01 0.01 68 1009.8
20260507190140 72 261 7.8 13.9 0.00 0.01 0.01 68 1009.8
20260507185516 72 271 8.7 14.8 0.00 0.01 0.01 67 1009.4
20260507185045 72 261 7.0 14.8 0.00 0.01 0.01 67 1009.5
20260507184625 72 265 7.8 14.8 0.00 0.01 0.01 67 1009.6
20260507184017 73 281 7.8 22.6 0.00 0.01 0.01 67 1009.4
20260507183521 72 262 8.7 22.6 0.00 0.01 0.01 67 1009.4
20260507183057 72 268 9.6 16.5 0.00 0.01 0.01 67 1009.5
20260507182516 72 281 7.8 20.0 0.00 0.01 0.01 67 1009.4
20260507182044 73 265 12.2 22.6 0.00 0.01 0.01 66 1009.2
20260507181622 73 268 9.6 22.6 0.00 0.01 0.01 66 1009.4
20260507181024 73 267 12.2 22.6 0.00 0.01 0.01 65 1009.4
20260507180546 73 262 10.4 18.2 0.00 0.01 0.01 65 1009.4
20260507180123 73 280 12.2 26.9 0.00 0.01 0.01 64 1009.3
20260507175533 73 277 13.9 27.8 0.00 0.01 0.01 64 1009.4
20260507175035 74 288 15.6 27.8 0.00 0.01 0.01 63 1009.6
20260507174638 74 257 13.9 28.7 0.00 0.01 0.01 63 1009.6
20260507174025 75 263 19.1 28.7 0.00 0.01 0.01 62 1009.6
20260507173546 75 266 18.2 28.7 0.00 0.01 0.01 62 1009.6
20260507173132 75 281 12.2 26.9 0.00 0.01 0.01 62 1009.7
20260507172532 75 290 15.6 30.4 0.00 0.01 0.01 63 1009.6
20260507172026 75 262 13.9 36.5 0.00 0.01 0.01 63 1009.8
20260507171606 76 259 20.9 33.0 0.00 0.01 0.01 61 1009.8
20260507171041 77 259 15.6 33.9 0.00 0.01 0.01 60 1009.8
20260507170533 77 261 22.6 33.9 0.00 0.01 0.01 61 1009.7
20260507170117 77 265 18.2 30.4 0.00 0.01 0.01 62 1010.1
20260507165542 77 277 15.6 30.4 0.00 0.01 0.01 61 1010.1
20260507165042 77 265 13.0 28.7 0.00 0.01 0.01 63 1010.0
20260507164641 77 263 17.4 28.7 0.00 0.01 0.01 63 1010.1
20260507164020 76 261 14.8 33.9 0.00 0.01 0.01 63 1010.1
20260507163527 76 277 19.1 33.9 0.00 0.01 0.01 63 1010.2
20260507163133 75 257 20.0 33.9 0.00 0.01 0.01 62 1010.2
20260507162540 75 294 18.2 33.9 0.00 0.01 0.01 64 1010.5
20260507162035 74 261 19.1 31.3 0.00 0.01 0.01 64 1010.6
20260507161631 75 263 18.2 34.8 0.00 0.01 0.01 62 1010.7
20260507161029 75 293 20.0 34.8 0.00 0.01 0.01 62 1010.7
20260507160541 75 261 15.6 38.2 0.00 0.01 0.01 63 1010.8
20260507160137 75 261 18.2 38.2 0.00 0.01 0.01 62 1010.8
20260507155535 75 280 20.9 30.4 0.00 0.01 0.01 62 1010.9
20260507155026 75 268 17.4 33.9 0.00 0.01 0.01 63 1010.9
20260507154639 76 284 18.2 33.9 0.00 0.01 0.01 62 1010.9
20260507154041 76 275 20.0 33.0 0.00 0.01 0.01 64 1011.0
20260507153548 76 272 18.2 29.5 0.00 0.01 0.01 64 1011.1
20260507153133 76 268 12.2 29.5 0.00 0.01 0.01 64 1011.2
20260507152545 75 261 13.0 28.7 0.00 0.01 0.01 65 1011.0
20260507152043 75 263 16.5 29.5 0.00 0.01 0.01 63 1011.1
20260507151635 75 268 20.9 31.3 0.00 0.01 0.01 64 1011.6
20260507151041 74 286 13.9 31.3 0.00 0.01 0.01 66 1011.9
20260507150520 74 269 13.9 27.8 0.00 0.01 0.01 67 1011.9
20260507150142 73 261 16.5 24.3 0.00 0.01 0.01 68 1012.2
20260507145532 72 264 12.2 26.9 0.00 0.01 0.01 69 1012.2
20260507145034 71 261 12.2 23.5 0.00 0.01 0.01 71 1012.2
20260507144635 71 259 13.9 23.5 0.00 0.01 0.01 71 1012.3
20260507144027 71 265 13.0 26.9 0.00 0.01 0.01 71 1012.5
20260507143542 71 306 14.8 26.9 0.00 0.01 0.01 71 1012.8
20260507143103 71 259 12.2 25.2 0.00 0.01 0.01 71 1012.8
20260507142541 72 255 13.0 24.3 0.00 0.01 0.01 70 1013.2
20260507142019 72 294 14.8 26.9 0.00 0.01 0.01 70 1013.2
20260507141634 72 281 17.4 26.9 0.00 0.01 0.01 71 1013.3
20260507141037 72 272 12.2 24.3 0.00 0.01 0.01 72 1013.5
20260507140533 71 257 13.9 26.9 0.00 0.01 0.01 71 1013.6
20260507140141 71 282 14.8 26.9 0.00 0.01 0.01 71 1013.8
20260507135530 71 272 15.6 23.5 0.00 0.01 0.01 71 1013.9
20260507135024 71 263 9.6 20.0 0.00 0.01 0.01 72 1014.0
20260507134634 70 297 10.4 16.5 0.00 0.01 0.01 73 1014.0
20260507134021 70 265 9.6 18.2 0.00 0.01 0.01 72 1014.2
20260507133521 70 263 11.3 18.2 0.00 0.01 0.01 72 1014.2
20260507133153 70 261 7.8 20.0 0.00 0.01 0.01 73 1014.4
20260507132526 70 265 11.3 25.2 0.00 0.01 0.01 73 1014.4
20260507132041 69 293 13.0 25.2 0.00 0.01 0.01 73 1014.4
20260507131647 69 277 8.7 22.6 0.00 0.01 0.01 74 1014.6
20260507131044 70 273 11.3 22.6 0.00 0.01 0.01 74 1014.4
20260507130541 70 288 11.3 21.7 0.00 0.01 0.01 73 1014.5
20260507130154 70 277 11.3 21.7 0.00 0.01 0.01 74 1014.4
20260507125526 70 281 13.9 21.7 0.00 0.01 0.01 75 1014.5
20260507125042 69 282 8.7 15.6 0.00 0.01 0.01 77 1014.7
20260507124653 68 259 10.4 20.0 0.00 0.01 0.01 77 1014.7
20260507124019 68 262 11.3 20.0 0.00 0.01 0.01 77 1014.7
20260507123517 68 271 9.6 20.9 0.00 0.01 0.01 77 1014.9
20260507123201 68 271 10.4 20.9 0.00 0.01 0.01 77 1014.7
20260507122529 67 247 8.7 17.4 0.00 0.01 0.01 77 1014.7
20260507122036 67 261 9.6 17.4 0.00 0.01 0.01 78 1014.8
20260507121700 67 269 9.6 14.8 0.00 0.01 0.01 79 1014.7
20260507121026 66 287 7.0 14.8 0.00 0.01 0.01 80 1015.0
20260507120520 66 261 8.7 13.9 0.00 0.01 0.01 81 1014.9
20260507120155 66 298 7.8 13.9 0.00 0.01 0.01 81 1015.1
20260507115526 66 273 7.8 14.8 0.00 0.01 0.01 82 1015.2
20260507115040 65 347 8.7 14.8 0.00 0.01 0.01 82 1015.4
20260507114707 65 262 6.1 17.4 0.00 0.01 0.01 82 1015.2
20260507114026 65 292 7.8 17.4 0.00 0.01 0.01 81 1015.2
20260507113524 65 273 7.0 16.5 0.00 0.01 0.01 82 1015.3
20260507113126 65 284 7.0 14.8 0.00 0.01 0.01 82 1015.3
20260507112515 65 267 6.1 14.8 0.00 0.01 0.01 82 1015.3
20260507112028 65 254 7.0 12.2 0.00 0.01 0.01 82 1015.4
20260507111700 65 261 5.2 12.2 0.00 0.01 0.01 82 1015.4
20260507111024 65 323 4.3 11.3 0.00 0.01 0.01 82 1015.3
20260507110533 65 286 6.1 11.3 0.00 0.01 0.01 82 1015.4
20260507110205 64 310 6.1 11.3 0.00 0.01 0.01 82 1015.5
20260507105538 64 305 4.3 11.3 0.00 0.01 0.01 82 1015.4
20260507105031 64 9 7.0 13.0 0.01 0.01 0.01 83 1015.4
20260507104655 64 309 6.1 13.0 0.01 0.01 0.01 83 1015.2
20260507104015 64 317 7.8 14.8 0.01 0.01 0.01 83 1015.3
20260507103533 64 338 7.8 14.8 0.01 0.01 0.01 83 1015.4
20260507103155 64 323 5.2 13.9 0.01 0.01 0.01 83 1015.4
20260507102521 64 265 7.0 12.2 0.01 0.01 0.01 82 1015.1
20260507102037 64 269 6.1 12.2 0.01 0.01 0.01 82 1015.3
20260507101649 64 289 5.2 8.7 0.01 0.01 0.01 82 1015.1
20260507101038 64 265 3.5 7.8 0.01 0.01 0.01 82 1015.2
20260507100519 64 57 5.2 12.2 0.01 0.01 0.01 82 1015.4
20260507100154 65 311 5.2 12.2 0.01 0.01 0.01 82 1015.5
20260507095520 65 334 3.5 7.8 0.01 0.01 0.01 81 1015.2
20260507095032 65 257 3.5 7.8 0.00 0.00 0.00 81 1015.2
20260507094625 65 261 3.5 8.7 0.00 0.00 0.00 81 1015.2
20260507094017 65 70 3.5 9.6 0.00 0.00 0.00 81 1015.3
20260507093527 65 51 2.6 9.6 0.00 0.00 0.00 81 1015.4
20260507093112 65 51 3.5 8.7 0.00 0.00 0.00 81 1015.5
20260507092546 65 296 3.5 8.7 0.00 0.00 0.00 81 1015.3
20260507092025 65 310 3.5 9.6 0.00 0.00 0.00 81 1015.3
20260507091653 65 259 4.3 9.6 0.00 0.00 0.00 80 1015.2
20260507091023 65 304 5.2 9.6 0.00 0.00 0.00 80 1015.4
20260507090542 65 317 3.5 8.7 0.00 0.00 0.00 80 1015.3
20260507090157 65 279 4.3 9.6 0.00 0.00 0.00 80 1015.3
20260507085533 65 282 4.3 12.2 0.00 0.00 0.00 79 1015.5
20260507085016 65 54 5.2 11.3 0.00 0.00 0.00 79 1015.5
20260507084624 65 284 6.1 11.3 0.00 0.00 0.00 79 1015.4
20260507084032 65 300 4.3 12.2 0.00 0.00 0.00 79 1015.4
20260507083517 65 323 4.3 12.2 0.00 0.00 0.00 79 1015.5
20260507083147 65 309 3.5 9.6 0.00 0.00 0.00 79 1015.6
20260507082539 65 268 5.2 9.6 0.00 0.00 0.00 79 1015.5
20260507082023 65 268 3.5 8.7 0.00 0.00 0.00 79 1015.7
20260507081644 65 259 5.2 10.4 0.00 0.00 0.00 79 1015.5
20260507081038 65 289 5.2 10.4 0.00 0.00 0.00 80 1015.6
20260507080532 65 286 3.5 7.8 0.00 0.00 0.00 80 1015.7
20260507080151 65 41 2.6 7.8 0.00 0.00 0.00 80 1015.4
20260507075517 65 291 2.6 8.7 0.00 0.00 0.00 80 1015.7
20260507075033 65 55 3.5 8.7 0.00 0.00 0.00 80 1015.9
20260507074630 65 334 2.6 7.8 0.00 0.00 0.00 81 1016.1
20260507074017 65 293 3.5 7.0 0.00 0.00 0.00 81 1015.9
20260507073524 65 262 3.5 7.0 0.00 0.00 0.00 81 1016.1
20260507073135 65 319 3.5 8.7 0.00 0.00 0.00 81 1016.0
20260507072536 65 282 4.3 10.4 0.00 0.00 0.00 81 1016.1
20260507072031 65 265 2.6 10.4 0.00 0.00 0.00 81 1016.3
20260507071630 64 304 3.5 8.7 0.00 0.00 0.00 82 1016.3
20260507071027 64 296 3.5 7.8 0.00 0.00 0.00 82 1016.3
20260507070542 64 309 3.5 7.8 0.00 0.00 0.00 81 1016.4
20260507070116 64 24 3.5 11.3 0.00 0.00 0.00 81 1016.5
20260507065539 65 314 4.3 11.3 0.00 0.00 0.00 81 1016.5
20260507065033 65 332 4.3 9.6 0.00 0.00 0.00 81 1016.4
20260507064700 65 265 3.5 9.6 0.00 0.00 0.00 80 1016.5
20260507064041 65 317 4.3 10.4 0.00 0.00 0.00 80 1016.7
20260507063527 65 265 5.2 10.4 0.00 0.00 0.00 80 1016.4
20260507063141 65 275 5.2 12.2 0.00 0.00 0.00 80 1016.4
20260507062519 64 262 6.1 12.2 0.00 0.00 0.00 80 1016.5
20260507062033 64 272 4.3 10.4 0.00 0.00 0.00 80 1016.6
20260507061926 64 265 3.5 9.6 0.00 0.00 0.00 80 1016.7
20260507061757 64 265 3.5 9.6 0.00 0.00 0.00 80 1016.7